Wind_Speed
21 21 21 21 20 21 21 21 21 21 22 23 23 23 24 25 25 24 24 24 25 25 25 25 25 25 25 25 25 26 27 27 28 28 28 29 30 29 29 28 28 27 27
21 21 21 21 20 21 20 20 21 22 22 23 23 24 25 24 24 23 23 24 25 25 25 26 25 25 24 24 25 25 26 26 26 27 28 28 28 28 27 26 26 26 25
21 21 21 21 21 21 21 21 21 22 23 23 23 23 24 24 24 23 23 24 25 25 25 24 24 24 24 24 24 25 25 25 25 26 26 26 25 24 24 25 25 26 24
21 21 21 21 21 22 22 21 22 23 23 23 23 23 23 23 23 23 23 24 24 24 24 23 23 23 24 24 24 25 25 25 24 24 24 24 23 23 23 23 24 24 24
21 21 20 20 21 21 22 22 22 22 22 22 22 22 22 22 22 22 22 23 24 24 24 23 22 22 22 23 23 23 23 23 23 23 23 23 22 22 23 22 22 22 23
20 21 20 20 20 20 21 21 20 21 21 21 22 22 22 22 22 22 22 23 23 23 22 21 21 21 21 22 22 22 22 22 22 22 22 22 22 21 22 22 21 21 22
20 21 21 21 20 20 20 19 19 20 21 21 20 22 22 22 21 21 21 21 21 21 21 20 20 20 21 21 20 20 20 21 21 21 21 22 21 21 20 20 20 21 21
20 20 20 19 19 19 19 19 19 20 20 20 20 21 20 20 21 21 20 20 20 20 20 20 20 20 20 20 19 19 19 20 20 20 20 20 20 19 18 18 19 20 21
20 20 20 18 18 18 18 19 19 20 20 20 19 19 19 19 20 19 19 19 19 19 19 20 20 20 19 19 18 19 19 19 20 20 19 19 18 17 17 18 19 20 20
20 19 18 18 18 18 18 19 19 20 19 18 18 18 18 19 19 18 18 19 18 19 19 19 18 18 18 18 18 18 19 19 19 18 18 17 17 17 17 17 18 19 20
19 19 18 18 18 18 18 18 18 18 17 16 17 17 17 17 17 17 18 18 18 18 18 18 17 17 17 17 17 17 18 18 17 17 16 14 14 15 15 16 17 18 19
20 19 18 18 18 18 18 17 16 16 16 16 16 16 17 17 16 17 18 18 17 17 17 18 18 18 17 17 17 17 17 16 15 14 13 13 13 14 14 15 15 15 16
20 19 19 18 18 18 17 17 16 16 16 16 16 16 16 16 16 16 17 17 17 17 17 17 18 18 18 17 16 16 15 15 14 14 13 13 13 13 13 13 14 14 14
20 19 18 18 18 17 17 15 15 15 15 15 15 15 15 15 15 16 16 17 17 17 17 18 18 18 17 17 17 17 16 15 14 14 13 13 14 14 14 13 13 12 12
19 19 18 17 17 17 17 16 15 15 15 15 15 15 15 15 15 15 16 17 17 17 17 17 17 18 17 17 18 18 17 16 15 15 14 14 14 14 14 13 12 11 10
20 19 18 17 17 17 16 16 15 15 15 15 15 15 14 14 15 15 16 16 16 16 16 17 17 18 18 18 18 17 17 16 16 16 15 14 13 13 13 12 11 11 10
19 18 17 16 17 16 16 16 15 14 14 14 14 14 14 14 14 15 15 15 16 16 16 17 18 18 18 18 18 18 18 17 16 16 15 14 13 12 12 11 11 10 10
19 18 17 16 16 16 15 15 14 13 13 13 14 13 13 13 14 14 15 16 16 17 17 17 17 18 18 18 19 19 18 17 16 16 15 14 13 11 11 10 10 9 9
19 19 17 16 16 15 15 14 13 13 13 13 13 13 13 13 14 14 15 15 16 16 16 17 17 18 19 18 19 20 19 18 17 17 16 14 12 11 11 10 9 9 9
19 18 18 17 16 15 14 14 13 13 13 12 12 13 13 13 14 15 15 16 16 16 16 17 17 18 19 19 19 20 19 19 18 17 15 13 12 11 11 11 10 9 9
20 19 19 19 18 17 15 14 14 13 13 13 13 14 13 13 14 15 15 15 15 16 16 17 17 18 18 19 19 19 19 20 18 16 14 13 12 11 11 10 9 9 9
21 20 20 19 18 18 17 16 15 14 14 14 14 14 15 14 15 15 15 15 15 16 16 17 17 17 18 19 19 20 20 20 18 15 14 13 12 12 11 10 9 9 9
22 21 20 19 19 19 18 17 16 16 16 16 15 16 16 15 15 15 15 15 16 16 17 17 17 17 18 19 19 19 20 19 18 16 15 14 13 12 11 10 9 9 9
23 22 21 20 20 20 19 18 18 18 18 18 17 17 16 16 16 16 16 16 16 16 17 17 17 18 18 18 18 19 19 19 18 16 15 14 13 13 12 11 10 9 9
23 23 22 21 20 20 19 19 19 19 18 18 18 18 17 17 17 17 17 16 16 17 17 17 17 17 17 18 18 18 18 18 17 16 15 14 13 13 12 11 11 10 9
24 23 22 21 21 20 20 20 19 19 19 19 20 19 19 18 18 18 17 16 16 17 17 17 18 17 17 18 18 17 17 17 16 16 15 14 14 14 13 11 11 10 10
Wind_Direction
304 305 307 307 307 308 305 304 303 303 305 306 306 305 305 305 304 304 304 304 304 304 302 300 297 296 295 294 291 290 287 286 285 283 281 279 276 274 272 269 267 266 265
307 307 308 309 310 311 310 306 306 306 307 308 306 306 307 307 305 305 305 306 305 305 304 301 298 296 295 294 294 292 290 288 287 284 282 282 279 275 272 268 265 263 263
308 308 308 309 311 310 310 310 308 308 308 308 307 306 306 306 307 306 306 306 307 307 306 302 299 297 295 294 293 293 293 291 289 287 286 284 281 277 273 269 265 263 260
309 309 310 311 310 310 310 310 309 309 308 307 307 307 308 308 308 307 308 309 311 310 308 304 301 299 296 297 296 294 293 292 291 290 289 287 284 279 274 268 266 262 258
313 312 312 313 311 310 312 312 312 310 308 308 308 308 309 309 309 310 310 311 312 311 309 307 305 303 300 300 300 297 294 295 294 292 289 287 284 281 275 269 265 261 258
313 313 314 313 312 312 314 315 314 314 314 311 310 309 309 310 310 311 311 310 312 314 313 313 310 308 305 303 302 301 298 297 295 291 289 288 283 280 276 269 264 261 258
312 312 315 316 315 315 316 316 318 317 316 314 313 312 311 311 311 313 313 314 316 318 319 318 314 311 309 306 307 305 302 300 297 293 290 288 285 280 277 271 264 260 258
314 312 314 316 316 317 319 320 320 320 319 319 318 317 316 315 314 314 315 316 319 322 322 321 318 315 312 310 310 307 305 303 299 296 292 289 285 282 279 273 266 263 261
317 317 316 316 317 319 321 321 322 323 322 321 321 322 322 321 319 319 318 320 321 322 322 322 320 318 316 314 314 313 310 307 304 299 293 289 288 283 279 273 267 266 263
318 319 319 320 321 321 321 321 322 323 323 324 324 325 325 325 325 326 324 323 323 323 323 324 323 321 320 319 318 317 313 311 308 305 299 294 290 285 281 276 272 268 265
316 317 318 320 319 319 318 319 321 323 325 327 328 328 329 330 330 330 329 328 328 326 324 324 325 324 322 319 319 320 318 316 313 309 306 302 297 289 285 279 274 269 266
312 314 316 317 317 318 318 319 322 324 326 328 330 332 332 331 331 333 333 331 330 333 332 329 328 326 325 324 324 324 323 320 319 317 315 307 301 297 292 287 280 272 269
309 310 313 314 316 318 318 320 323 325 327 327 328 329 330 331 333 336 339 336 335 336 337 339 337 332 331 332 332 331 329 326 323 321 317 312 308 304 301 294 287 277 271
306 306 310 312 313 316 317 319 323 325 328 330 328 328 330 335 336 338 340 341 339 338 339 341 340 340 337 337 337 335 331 328 326 327 325 319 313 307 305 297 289 284 279
304 304 306 308 310 313 314 316 319 325 329 331 330 329 331 334 338 339 340 341 342 342 340 341 343 345 344 342 340 338 337 334 330 328 327 322 316 310 307 302 294 285 284
302 302 301 305 308 310 310 312 314 320 325 328 331 333 335 336 340 342 344 346 347 347 347 345 345 346 346 347 346 345 345 341 333 328 326 324 318 314 310 304 295 286 283
299 299 298 301 305 307 309 310 312 316 320 326 331 334 337 340 342 346 348 347 347 347 346 346 345 346 347 349 348 345 346 344 339 335 331 326 321 316 313 306 299 292 289
295 294 293 295 299 301 304 306 309 313 317 323 327 331 335 339 342 346 348 349 350 348 347 349 349 348 347 348 349 348 346 345 342 339 333 329 325 320 317 311 305 300 295
291 292 291 292 294 297 300 302 305 310 313 319 325 330 334 337 338 341 342 344 344 346 348 350 350 348 348 347 346 347 346 345 342 340 338 336 333 326 326 321 314 308 303
288 289 291 293 292 293 295 297 299 304 309 314 321 326 329 331 333 336 338 338 341 344 345 347 346 345 345 345 345 346 345 344 343 341 342 340 336 330 323 323 316 310 308
285 287 288 289 289 289 288 290 294 298 301 306 315 319 320 323 327 330 333 336 339 341 342 343 343 343 343 343 344 345 345 345 345 346 344 341 338 334 329 325 322 315 310
281 284 286 285 286 285 284 285 287 290 294 300 307 314 315 317 322 326 330 333 335 336 338 338 339 339 341 342 342 343 345 345 345 345 344 344 341 338 334 329 328 323 314
277 279 282 282 282 281 281 281 283 285 288 294 300 307 311 314 317 318 321 325 328 331 333 335 335 336 337 339 340 340 343 345 345 344 343 343 339 335 333 329 324 321 318
273 275 277 279 280 279 277 278 280 282 285 289 295 302 305 308 311 313 314 319 323 326 328 330 330 332 334 335 335 336 339 340 340 340 341 340 339 336 332 326 324 321 318
269 271 273 275 276 276 277 277 278 280 282 287 290 297 300 303 306 307 310 313 317 320 322 324 325 327 329 332 333 333 337 340 342 341 340 341 341 341 335 327 321 317 313
266 267 269 271 272 273 275 277 276 277 280 284 288 291 294 297 300 302 304 307 311 315 319 321 322 323 326 329 332 334 336 338 339 340 341 339 338 338 335 330 325 320 315
Height
5846 5844 5842 5839 5837 5835 5833 5831 5829 5827 5825 5823 5820 5818 5815 5813 5810 5807 5805 5802 5800 5797 5795 5792 5790 5788 5785 5783 5781 5780 5779 5777 5776 5775 5774 5774 5773 5773 5773 5774 5775 5775 5776
5842 5840 5838 5836 5834 5831 5829 5827 5825 5823 5820 5818 5815 5813 5811 5808 5805 5802 5800 5797 5794 5791 5789 5786 5784 5782 5780 5777 5775 5774 5772 5771 5769 5768 5767 5766 5765 5765 5765 5766 5767 5768 5769
5839 5837 5834 5832 5830 5828 5825 5823 5821 5818 5816 5813 5810 5808 5805 5803 5800 5797 5795 5792 5788 5786 5783 5780 5778 5776 5774 5772 5770 5768 5766 5764 5762 5760 5759 5758 5758 5757 5757 5758 5759 5760 5761
5835 5833 5831 5829 5826 5824 5821 5819 5816 5814 5811 5808 5805 5803 5800 5798 5795 5792 5789 5786 5783 5780 5778 5775 5772 5770 5767 5766 5764 5762 5760 5758 5756 5754 5752 5751 5750 5750 5751 5751 5752 5752 5754
5832 5830 5828 5825 5823 5820 5817 5815 5812 5809 5806 5804 5801 5798 5796 5793 5790 5787 5785 5782 5779 5775 5772 5770 5767 5764 5762 5760 5758 5755 5753 5751 5750 5748 5747 5745 5744 5743 5744 5745 5745 5746 5747
5829 5826 5823 5821 5819 5816 5814 5811 5808 5805 5802 5800 5797 5794 5791 5789 5786 5783 5780 5777 5774 5771 5768 5765 5762 5759 5757 5754 5752 5750 5748 5746 5744 5742 5741 5739 5738 5738 5737 5737 5738 5739 5741
5827 5823 5819 5818 5816 5813 5810 5807 5804 5802 5799 5796 5793 5790 5787 5784 5782 5779 5776 5773 5770 5767 5764 5761 5758 5755 5752 5750 5747 5745 5743 5741 5738 5736 5735 5734 5732 5731 5731 5731 5732 5733 5734
5824 5820 5817 5815 5812 5810 5806 5804 5801 5798 5795 5792 5789 5786 5783 5781 5778 5775 5772 5769 5767 5764 5761 5757 5754 5751 5748 5746 5743 5741 5738 5736 5733 5731 5729 5728 5726 5725 5725 5725 5725 5726 5728
5821 5818 5815 5812 5809 5806 5803 5800 5798 5795 5791 5788 5786 5783 5780 5777 5774 5771 5768 5766 5763 5761 5757 5754 5751 5748 5745 5742 5739 5737 5734 5731 5729 5726 5724 5722 5721 5720 5720 5719 5719 5720 5721
5818 5815 5812 5809 5806 5804 5801 5798 5795 5792 5788 5785 5783 5780 5777 5774 5771 5768 5765 5763 5760 5758 5754 5751 5748 5745 5742 5739 5736 5733 5730 5727 5724 5721 5719 5717 5716 5715 5715 5714 5714 5714 5715
5815 5812 5809 5806 5804 5801 5798 5795 5792 5789 5786 5783 5780 5777 5775 5772 5769 5766 5763 5760 5758 5755 5752 5749 5745 5742 5739 5735 5732 5729 5726 5723 5720 5717 5714 5713 5712 5711 5710 5709 5709 5709 5709
5812 5809 5806 5804 5801 5798 5795 5793 5790 5787 5784 5781 5778 5776 5773 5770 5767 5764 5761 5758 5755 5752 5749 5746 5742 5739 5736 5732 5729 5726 5722 5719 5716 5713 5711 5709 5708 5707 5706 5705 5704 5704 5704
5808 5806 5803 5801 5798 5796 5793 5790 5787 5785 5782 5780 5777 5774 5771 5768 5765 5762 5760 5757 5754 5751 5747 5744 5740 5737 5733 5730 5726 5723 5720 5716 5713 5711 5708 5706 5704 5703 5701 5700 5700 5700 5700
5805 5803 5801 5798 5796 5793 5791 5788 5785 5783 5780 5778 5775 5772 5770 5767 5764 5761 5758 5755 5752 5749 5746 5742 5739 5735 5731 5728 5724 5721 5717 5714 5711 5708 5706 5704 5701 5700 5698 5697 5696 5696 5696
5801 5799 5797 5795 5793 5791 5788 5786 5783 5781 5778 5776 5773 5771 5768 5765 5762 5760 5757 5754 5750 5747 5744 5740 5737 5733 5730 5726 5722 5719 5715 5712 5709 5706 5704 5701 5699 5697 5695 5693 5692 5692 5692
5798 5796 5794 5792 5790 5788 5786 5783 5781 5779 5776 5774 5772 5769 5766 5764 5761 5758 5755 5752 5749 5746 5743 5739 5736 5732 5728 5725 5721 5717 5714 5710 5707 5705 5702 5699 5696 5694 5692 5690 5689 5689 5689
5794 5792 5790 5789 5787 5785 5783 5781 5779 5777 5775 5772 5770 5767 5765 5762 5760 5757 5754 5752 5748 5745 5742 5738 5735 5731 5727 5724 5720 5716 5713 5709 5706 5702 5699 5697 5694 5691 5689 5688 5687 5686 5686
5789 5788 5786 5785 5784 5782 5780 5778 5776 5775 5773 5771 5768 5766 5764 5761 5759 5756 5754 5751 5748 5744 5741 5737 5734 5730 5726 5723 5719 5715 5711 5708 5704 5700 5697 5694 5691 5689 5687 5686 5685 5684 5683
5785 5784 5782 5781 5780 5779 5777 5776 5774 5772 5770 5769 5767 5764 5762 5760 5758 5755 5753 5750 5747 5744 5740 5737 5733 5729 5726 5722 5718 5714 5710 5706 5702 5699 5695 5692 5690 5688 5686 5684 5683 5682 5682
5781 5780 5779 5778 5777 5775 5774 5773 5772 5770 5768 5767 5765 5763 5761 5759 5756 5754 5752 5749 5746 5743 5740 5736 5733 5729 5725 5721 5717 5713 5709 5705 5701 5697 5694 5691 5689 5686 5685 5683 5682 5681 5680
5777 5776 5775 5774 5773 5772 5771 5770 5769 5767 5766 5765 5763 5761 5759 5757 5755 5753 5750 5747 5744 5742 5738 5735 5732 5728 5724 5720 5716 5712 5708 5704 5699 5696 5693 5690 5687 5685 5683 5681 5680 5679 5678
5772 5771 5770 5769 5768 5768 5767 5766 5765 5764 5763 5762 5761 5759 5757 5755 5753 5750 5748 5745 5743 5740 5737 5734 5731 5727 5723 5719 5715 5711 5706 5702 5698 5695 5691 5688 5686 5683 5681 5680 5678 5677 5676
5766 5766 5765 5764 5763 5763 5762 5762 5761 5761 5760 5759 5757 5755 5754 5752 5750 5748 5745 5743 5741 5738 5735 5732 5729 5726 5722 5718 5714 5709 5705 5701 5697 5693 5690 5687 5684 5682 5680 5678 5677 5675 5675
5760 5760 5759 5759 5758 5758 5758 5757 5757 5756 5755 5754 5753 5752 5750 5749 5747 5745 5742 5740 5738 5736 5733 5730 5726 5723 5720 5716 5711 5707 5703 5699 5695 5691 5688 5685 5683 5680 5678 5676 5675 5673 5672
5753 5753 5753 5753 5753 5753 5752 5752 5751 5751 5751 5749 5748 5747 5746 5745 5743 5741 5739 5737 5735 5732 5730 5727 5724 5720 5717 5713 5709 5705 5701 5697 5693 5690 5687 5684 5682 5679 5676 5674 5672 5671 5670
5746 5746 5747 5747 5747 5747 5747 5746 5746 5746 5745 5745 5744 5743 5742 5740 5739 5737 5736 5733 5731 5729 5726 5723 5720 5717 5714 5710 5707 5703 5699 5695 5692 5689 5686 5683 5680 5677 5675 5672 5670 5669 5668